When you browse on this site, cookies collect data to enhance your experience and personalize the content and advertising you see.
Visit our Privacy Policy to learn more. By continuing to use the site, you agree to this use of cookies and data.
  • In United Kingdom
  • List of Countries
  • For 7 days
  • Water Temperature
  • Satellite Maps
  • Weather Map
  • Weather Widgets
  • user-avatar
    Login

    Hourly Weather Maseru

    Today, 17 February, Sunday

    Time Temperature Precipitation Wind Pressure Humidity
    00:00 +18°C° 0 mm 2 mps 636 mmHg 60%
    01:00 +17°C° 0 mm 2 mps 636 mmHg 63%
    02:00 +16°C° 0 mm 1 mps 635 mmHg 66%
    03:00 +16°C° 0 mm 1 mps 635 mmHg 69%
    04:00 +15°C° 0 mm 1 mps 635 mmHg 72%
    05:00 +14°C° 0 mm 1 mps 635 mmHg 75%
    06:00 +16°C° 0 mm 1 mps 636 mmHg 68%
    07:00 +19°C° 0 mm 1 mps 636 mmHg 61%
    08:00 +21°C° 0 mm 1 mps 637 mmHg 53%
    09:00 +23°C° 0 mm 1 mps 638 mmHg 45%
    10:00 +25°C° 0 mm 1 mps 638 mmHg 37%
    11:00 +27°C° 0 mm 2 mps 638 mmHg 29%
    12:00 +28°C° 0 mm 2 mps 638 mmHg 25%
    13:00 +30°C° 0 mm 3 mps 638 mmHg 22%
    14:00 +31°C° 0 mm 3 mps 638 mmHg 18%
    15:00 +32°C° 0 mm 4 mps 638 mmHg 18%
    16:00 +30°C° 0 mm 4 mps 638 mmHg 18%
    17:00 +30°C° 0 mm 5 mps 637 mmHg 18%
    18:00 +28°C° 0 mm 4 mps 637 mmHg 23%
    19:00 +25°C° 0 mm 4 mps 637 mmHg 27%
    20:00 +21°C° 0 mm 4 mps 636 mmHg 32%
    21:00 +20°C° 0 mm 3 mps 636 mmHg 36%
    22:00 +19°C° 0 mm 2 mps 637 mmHg 41%
    23:00 +18°C° 0 mm 2 mps 637 mmHg 45%

    Tomorrow, 18 February, Monday

    Time Temperature Precipitation Wind Pressure Humidity
    00:00 +18°C° 0 mm 1 mps 637 mmHg 49%
    01:00 +16°C° 0 mm 1 mps 636 mmHg 53%
    02:00 +16°C° 0 mm 1 mps 636 mmHg 56%
    03:00 +15°C° 0 mm 1 mps 636 mmHg 62%
    04:00 +14°C° 0 mm 1 mps 636 mmHg 67%
    05:00 +14°C° 0 mm 1 mps 635 mmHg 72%
    06:00 +16°C° 0 mm 1 mps 636 mmHg 67%
    07:00 +17°C° 0 mm 0 mps 637 mmHg 61%
    08:00 +19°C° 0 mm 0 mps 638 mmHg 55%
    09:00 +23°C° 0 mm 1 mps 638 mmHg 49%
    10:00 +24°C° 0 mm 2 mps 638 mmHg 43%
    11:00 +26°C° 0 mm 3 mps 638 mmHg 36%
    12:00 +28°C° 0 mm 3 mps 638 mmHg 32%
    13:00 +29°C° 0 mm 4 mps 638 mmHg 28%
    14:00 +30°C° 0 mm 4 mps 638 mmHg 24%
    15:00 +30°C° 0 mm 4 mps 637 mmHg 24%
    16:00 +30°C° 0 mm 4 mps 637 mmHg 24%
    17:00 +30°C° 0 mm 5 mps 636 mmHg 23%
    18:00 +27°C° 0 mm 4 mps 636 mmHg 28%
    19:00 +25°C° 0 mm 3 mps 636 mmHg 33%
    20:00 +21°C° 0 mm 2 mps 635 mmHg 38%
    21:00 +21°C° 0 mm 1 mps 635 mmHg 39%
    22:00 +20°C° 0 mm 1 mps 635 mmHg 40%
    23:00 +19°C° 0 mm 1 mps 636 mmHg 41%

    Day after tomorrow, 19 February, Tuesday

    Time Temperature Precipitation Wind Pressure Humidity
    00:00 +19°C° 0 mm 1 mps 635 mmHg 42%
    01:00 +19°C° 0 mm 1 mps 635 mmHg 42%
    02:00 +17°C° 0 mm 2 mps 635 mmHg 42%
    03:00 +18°C° 0 mm 1 mps 635 mmHg 46%
    04:00 +16°C° 0 mm 1 mps 635 mmHg 50%
    05:00 +15°C° 0 mm 1 mps 634 mmHg 54%
    06:00 +18°C° 0 mm 1 mps 635 mmHg 52%
    07:00 +19°C° 0 mm 2 mps 636 mmHg 50%
    08:00 +21°C° 0 mm 2 mps 637 mmHg 47%
    09:00 +24°C° 0 mm 2 mps 638 mmHg 44%
    10:00 +26°C° 0 mm 3 mps 638 mmHg 40%
    11:00 +28°C° 0 mm 4 mps 638 mmHg 36%
    12:00 +29°C° 0 mm 4 mps 638 mmHg 34%
    13:00 +30°C° 0 mm 3 mps 638 mmHg 31%
    14:00 +31°C° 0 mm 3 mps 637 mmHg 29%
    15:00 +31°C° 0 mm 3 mps 637 mmHg 28%
    16:00 +31°C° 0 mm 3 mps 637 mmHg 28%
    17:00 +31°C° 0 mm 3 mps 636 mmHg 28%
    18:00 +28°C° 0 mm 2 mps 636 mmHg 33%
    19:00 +25°C° 0 mm 1 mps 635 mmHg 39%
    20:00 +23°C° 0 mm 1 mps 634 mmHg 44%
    21:00 +22°C° 0 mm 1 mps 635 mmHg 44%
    22:00 +21°C° 0 mm 2 mps 635 mmHg 44%
    23:00 +21°C° 0 mm 2 mps 635 mmHg 45%

    20 February, Wednesday

    Time Temperature Precipitation Wind Pressure Humidity
    00:00 +20°C° 0 mm 2 mps 635 mmHg 46%
    01:00 +20°C° 0 mm 2 mps 635 mmHg 47%
    02:00 +19°C° 0 mm 2 mps 634 mmHg 49%
    03:00 +19°C° 0 mm 2 mps 634 mmHg 51%
    04:00 +18°C° 0 mm 2 mps 634 mmHg 54%
    05:00 +18°C° 0 mm 1 mps 634 mmHg 56%
    06:00 +19°C° 0 mm 2 mps 635 mmHg 52%
    07:00 +21°C° 0 mm 2 mps 636 mmHg 48%
    08:00 +24°C° 0 mm 2 mps 637 mmHg 44%
    09:00 +26°C° 0 mm 2 mps 638 mmHg 38%
    10:00 +28°C° 0 mm 2 mps 638 mmHg 32%
    11:00 +30°C° 0 mm 2 mps 639 mmHg 25%
    12:00 +32°C° 0 mm 4 mps 639 mmHg 22%
    13:00 +34°C° 0 mm 5 mps 639 mmHg 19%
    14:00 +35°C° 0 mm 6 mps 638 mmHg 16%
    15:00 +35°C° 0 mm 6 mps 638 mmHg 16%
    16:00 +34°C° 0 mm 6 mps 638 mmHg 16%
    17:00 +34°C° 0 mm 5 mps 637 mmHg 16%
    18:00 +30°C° 0 mm 4 mps 637 mmHg 19%
    19:00 +28°C° 0 mm 3 mps 637 mmHg 22%
    20:00 +25°C° 0 mm 2 mps 636 mmHg 25%
    21:00 +24°C° 0 mm 2 mps 636 mmHg 27%
    22:00 +23°C° 0 mm 1 mps 636 mmHg 28%
    23:00 +23°C° 0 mm 1 mps 637 mmHg 30%

    21 February, Thursday

    Time Temperature Precipitation Wind Pressure Humidity
    00:00 +21°C° 0 mm 1 mps 636 mmHg 32%
    01:00 +20°C° 0 mm 1 mps 636 mmHg 34%
    02:00 +17°C° 0 mm 0 mps 635 mmHg 36%
    03:00 +19°C° 0 mm 1 mps 635 mmHg 36%
    04:00 +19°C° 0 mm 1 mps 636 mmHg 36%
    05:00 +18°C° 0 mm 1 mps 636 mmHg 36%
    06:00 +21°C° 0 mm 1 mps 637 mmHg 33%
    07:00 +24°C° 0 mm 1 mps 638 mmHg 29%
    08:00 +26°C° 0 mm 1 mps 640 mmHg 25%
    09:00 +28°C° 0 mm 1 mps 640 mmHg 22%
    10:00 +30°C° 0 mm 2 mps 640 mmHg 19%
    11:00 +32°C° 0 mm 2 mps 641 mmHg 16%
    12:00 +34°C° 0 mm 3 mps 640 mmHg 16%
    13:00 +34°C° 0 mm 4 mps 640 mmHg 16%
    14:00 +35°C° 0 mm 4 mps 639 mmHg 15%
    15:00 +34°C° 0 mm 4 mps 639 mmHg 17%
    16:00 +34°C° 0 mm 4 mps 639 mmHg 18%
    17:00 +33°C° 0 mm 4 mps 639 mmHg 19%
    18:00 +29°C° 0 mm 3 mps 638 mmHg 24%
    19:00 +27°C° 0 mm 2 mps 637 mmHg 28%
    20:00 +24°C° 0 mm 2 mps 637 mmHg 33%
    21:00 +23°C° 0 mm 1 mps 637 mmHg 35%
    22:00 +22°C° 0 mm 1 mps 637 mmHg 36%
    23:00 +21°C° 0 mm 1 mps 637 mmHg 38%

    22 February, Friday

    Time Temperature Precipitation Wind Pressure Humidity
    00:00 +21°C° 0 mm 1 mps 637 mmHg 41%
    01:00 +20°C° 0 mm 1 mps 636 mmHg 44%
    02:00 +20°C° 0 mm 1 mps 636 mmHg 47%
    03:00 +20°C° 0 mm 1 mps 636 mmHg 50%
    04:00 +19°C° 0 mm 1 mps 636 mmHg 54%
    05:00 +19°C° 0 mm 1 mps 636 mmHg 57%
    06:00 +20°C° 0 mm 2 mps 637 mmHg 55%
    07:00 +22°C° 0 mm 3 mps 638 mmHg 53%
    08:00 +23°C° 0 mm 4 mps 638 mmHg 52%
    09:00 +26°C° 0 mm 4 mps 638 mmHg 48%
    10:00 +28°C° 0 mm 5 mps 638 mmHg 44%
    11:00 +29°C° 0 mm 6 mps 638 mmHg 40%
    12:00 +32°C° 0 mm 6 mps 638 mmHg 34%
    13:00 +33°C° 0 mm 5 mps 638 mmHg 28%
    14:00 +35°C° 0 mm 5 mps 637 mmHg 22%
    15:00 +34°C° 0 mm 5 mps 637 mmHg 23%
    16:00 +33°C° 0 mm 5 mps 636 mmHg 24%
    17:00 +33°C° 0 mm 4 mps 636 mmHg 24%
    18:00 +30°C° 0 mm 3 mps 636 mmHg 26%
    19:00 +28°C° 0 mm 2 mps 635 mmHg 28%
    20:00 +27°C° 0 mm 1 mps 635 mmHg 29%
    21:00 +25°C° 0 mm 1 mps 634 mmHg 31%
    22:00 +23°C° 0 mm 1 mps 634 mmHg 32%
    23:00 +21°C° 0 mm 1 mps 634 mmHg 34%
    Show more